Weather History for KSBS - October, 2013

Change the Weather History Date:

Thursday, October 3, 2013

  Actual Average Record
Temperature  
Mean Temperature 48 °F -  
Max Temperature 66 °F 66 °F 80 °F (1909)
Min Temperature 31 °F 29 °F 15 °F (1919)
Degree Days  
Heating Degree Days 16    
Moisture  
Dew Point 29 °F    
Average Humidity 55    
Maximum Humidity 100    
Minimum Humidity 17    
Precipitation  
Precipitation 0.00 in - - ()
Sea Level Pressure  
Sea Level Pressure 29.87 in    
Wind  
Wind Speed 4 mph (SSW)    
Max Wind Speed 22 mph    
Max Gust Speed 31 mph    
Visibility 9 miles    
Events      
Averages and records for this station are not official NWS values.
T = Trace of Precipitation, MM = Missing Value Source: NWS Daily Summary

Daily Weather History Graph

Daily Weather History Graph

Search for Another Location

Airport or City:

Trip Planner

Search our weather history database for the weather conditions in past years. The results will help you decide how hot, cold, wet, or windy it might be!

Date:

Astronomy

Oct. 03, 2013 Rise Set
Actual Time 7:06 AM MDT 6:45 PM MDT
Civil Twilight 6:39 AM MDT 7:13 PM MDT
Nautical Twilight 6:07 AM MDT 7:44 PM MDT
Astronomical Twilight 5:35 AM MDT 8:16 PM MDT
Moon 5:42 AM MDT (10/3) 5:56 PM MDT (10/3)
Length of Visible Light 12h 33m
Length of Day
11h 39m
Waning Crescent, 2% of the Moon is Illuminated
Oct 3
Waning Crescent
Oct 4
New
Oct 11
First Quarter
Oct 18
Full
Oct 26
Last Quarter

Hourly Weather History & Observations

Time (MDT) Temp. Windchill Dew Point Humidity Pressure Visibility Wind Dir Wind Speed Gust Speed Precip Events Conditions
12:14 AM 52.0 °F - 24.3 °F 34% 29.93 in 10.0 mi Calm Calm - N/A   Mostly Cloudy
12:34 AM 52.3 °F - 23.0 °F 32% 29.93 in 10.0 mi Calm Calm - N/A   Scattered Clouds
12:54 AM 53.8 °F - 21.9 °F 29% 29.92 in 10.0 mi Calm Calm - N/A   Mostly Cloudy
1:14 AM 47.1 °F - 29.1 °F 50% 29.92 in 10.0 mi Calm Calm - N/A   Mostly Cloudy
1:34 AM 45.7 °F - 28.8 °F 52% 29.92 in 10.0 mi Calm Calm - N/A   Overcast
1:54 AM 46.9 °F - 31.5 °F 55% 29.92 in 10.0 mi Calm Calm - N/A   Mostly Cloudy
2:14 AM 50.0 °F - 28.6 °F 44% 29.92 in 10.0 mi East 5.8 mph - N/A   Overcast
2:34 AM 49.8 °F - 27.1 °F 41% 29.91 in 10.0 mi East 6.9 mph - N/A   Overcast
2:54 AM 52.5 °F - 23.2 °F 32% 29.89 in 10.0 mi ESE 10.4 mph - N/A   Overcast
3:14 AM 51.8 °F - 25.2 °F 36% 29.89 in 10.0 mi Calm Calm - N/A   Overcast
3:34 AM 49.6 °F - 28.6 °F 44% 29.89 in 10.0 mi NNW 5.8 mph - N/A   Overcast
3:54 AM 48.9 °F - 29.5 °F 47% 29.90 in 10.0 mi East 3.5 mph - N/A   Overcast
4:14 AM 46.6 °F - 30.7 °F 54% 29.90 in 10.0 mi NE 4.6 mph - N/A   Overcast
4:34 AM 47.3 °F - 30.6 °F 52% 29.89 in 10.0 mi East 5.8 mph - N/A   Overcast
4:54 AM 48.6 °F - 29.5 °F 48% 29.89 in 10.0 mi ESE 3.5 mph - N/A   Overcast
5:14 AM 46.6 °F - 30.0 °F 53% 29.88 in 10.0 mi Calm Calm - N/A   Overcast
5:34 AM 46.8 °F - 30.9 °F 54% 29.89 in 10.0 mi Calm Calm - N/A   Overcast
5:54 AM 45.9 °F 44.6 °F 31.1 °F 56% 29.88 in 10.0 mi NE 3.5 mph - N/A   Overcast
6:14 AM 44.8 °F - 33.3 °F 64% 29.88 in 10.0 mi Calm Calm - N/A   Overcast
6:34 AM 45.0 °F 43.5 °F 32.2 °F 61% 29.88 in 10.0 mi East 3.5 mph - N/A   Overcast
6:54 AM 44.6 °F - 32.4 °F 62% 29.87 in 10.0 mi Calm Calm - N/A   Overcast
7:14 AM 43.3 °F - 32.2 °F 65% 29.87 in 10.0 mi Calm Calm - N/A   Overcast
7:34 AM 41.9 °F - 32.9 °F 70% 29.87 in 10.0 mi Calm Calm - N/A   Mostly Cloudy
7:54 AM 43.9 °F - 32.4 °F 64% 29.87 in 10.0 mi Calm Calm - N/A   Mostly Cloudy
8:14 AM 46.0 °F - 32.5 °F 59% 29.86 in 10.0 mi Calm Calm - N/A   Mostly Cloudy
8:34 AM 46.6 °F - 32.5 °F 58% 29.86 in 10.0 mi Calm Calm - N/A   Scattered Clouds
8:54 AM 49.3 °F - 32.0 °F 51% 29.85 in 10.0 mi Calm Calm - N/A   Clear
9:14 AM 51.1 °F - 32.4 °F 49% 29.85 in 10.0 mi Calm Calm - N/A   Clear
9:34 AM 53.2 °F - 32.5 °F 45% 29.85 in 10.0 mi Calm Calm - N/A   Clear
9:54 AM 56.1 °F - 32.0 °F 40% 29.85 in 10.0 mi Calm Calm - N/A   Scattered Clouds
10:14 AM 57.2 °F - 32.7 °F 40% 29.84 in 10.0 mi Calm Calm - N/A   Mostly Cloudy
10:34 AM 56.5 °F - 32.4 °F 40% 29.84 in 10.0 mi SW 5.8 mph - N/A   Scattered Clouds
10:54 AM 60.3 °F - 29.7 °F 31% 29.83 in 10.0 mi WSW 4.6 mph - N/A   Scattered Clouds
11:14 AM 61.0 °F - 28.9 °F 30% 29.83 in 10.0 mi SW 6.9 mph - N/A   Clear
11:34 AM 63.9 °F - 25.0 °F 23% 29.82 in 10.0 mi SW 12.7 mph - N/A   Scattered Clouds
11:54 AM 65.8 °F - 20.8 °F 18% 29.81 in 10.0 mi WSW 11.5 mph 31.1 mph N/A   Scattered Clouds
12:14 PM 66.0 °F - 19.2 °F 17% 29.80 in 10.0 mi SW 16.1 mph 26.5 mph N/A   Clear
12:34 PM 65.1 °F - 21.2 °F 19% 29.80 in 10.0 mi WSW 16.1 mph 27.6 mph N/A   Scattered Clouds
12:54 PM 63.5 °F - 19.4 °F 18% 29.79 in 10.0 mi WSW 16.1 mph 29.9 mph N/A   Scattered Clouds
1:14 PM 62.6 °F - 19.0 °F 19% 29.78 in 10.0 mi SW 15.0 mph 21.9 mph N/A   Scattered Clouds
1:34 PM 62.6 °F - 18.7 °F 18% 29.77 in 10.0 mi WSW 15.0 mph 25.3 mph N/A   Scattered Clouds
1:54 PM 63.0 °F - 17.8 °F 17% 29.76 in 10.0 mi SW 15.0 mph 23.0 mph N/A   Scattered Clouds
2:14 PM 62.8 °F - 23.5 °F 22% 29.76 in 10.0 mi WSW 16.1 mph 23.0 mph N/A   Mostly Cloudy
2:34 PM 61.7 °F - 24.1 °F 24% 29.76 in 10.0 mi WSW 11.5 mph 23.0 mph N/A   Mostly Cloudy
2:54 PM 63.0 °F - 26.6 °F 25% 29.75 in 10.0 mi WSW 10.4 mph 17.3 mph N/A   Mostly Cloudy
3:14 PM 61.2 °F - 28.4 °F 29% 29.75 in 10.0 mi SW 13.8 mph 20.7 mph N/A   Mostly Cloudy
3:34 PM 57.0 °F - 32.0 °F 39% 29.76 in 10.0 mi SW 15.0 mph 23.0 mph N/A   Overcast
3:54 PM 56.8 °F - 32.2 °F 39% 29.77 in 10.0 mi SW 15.0 mph 24.2 mph N/A   Overcast
4:14 PM 54.7 °F - 31.6 °F 42% 29.79 in 10.0 mi SW 15.0 mph 21.9 mph N/A   Mostly Cloudy
4:34 PM 49.8 °F - 32.0 °F 50% 29.81 in 10.0 mi SW 21.9 mph 27.6 mph N/A   Overcast
4:54 PM 48.2 °F - 32.0 °F 54% 29.82 in 10.0 mi SW 18.4 mph 27.6 mph N/A   Overcast
5:14 PM 43.5 °F 36.4 °F 32.0 °F 64% 29.85 in 10.0 mi SW 15.0 mph 26.5 mph N/A   Overcast
5:34 PM 41.7 °F 34.8 °F 32.0 °F 68% 29.87 in 10.0 mi SW 12.7 mph 20.7 mph N/A   Overcast
5:54 PM 39.2 °F 32.5 °F 31.3 °F 73% 29.90 in 10.0 mi SSW 10.4 mph 18.4 mph N/A   Overcast
6:14 PM 36.7 °F 28.4 °F 30.2 °F 77% 29.93 in 10.0 mi SSW 12.7 mph 20.7 mph N/A   Overcast
6:34 PM 35.6 °F 29.2 °F 29.3 °F 78% 29.95 in 10.0 mi South 8.1 mph - N/A   Overcast
6:54 PM 34.7 °F 28.1 °F 29.1 °F 80% 29.95 in 7.0 mi South 8.1 mph - N/A   Overcast
7:14 PM 33.8 °F 27.0 °F 29.3 °F 84% 29.96 in 10.0 mi South 8.1 mph - N/A   Overcast
7:34 PM 33.1 °F 27.7 °F 30.7 °F 91% 29.96 in 5.0 mi South 5.8 mph - N/A   Overcast
7:54 PM 33.1 °F 28.7 °F 31.5 °F 94% 29.95 in 3.0 mi ESE 4.6 mph - N/A   Overcast
8:14 PM 32.5 °F - 31.5 °F 96% 29.97 in 2.5 mi Calm Calm - N/A   Overcast
8:34 PM 32.2 °F 28.9 °F 31.8 °F 99% 29.96 in 1.5 mi East 3.5 mph - N/A   Overcast
8:54 PM 32.0 °F - 32.0 °F 100% 29.95 in 3.0 mi Calm Calm - N/A   Overcast
9:14 PM 32.0 °F - 32.0 °F 100% 29.94 in 1.8 mi Calm Calm - N/A   Overcast
9:34 PM 32.0 °F - 32.0 °F 100% 29.94 in 2.0 mi Calm Calm - N/A   Overcast
10:34 PM 32.0 °F 28.7 °F 32.0 °F 100% 29.96 in 0.8 mi WSW 3.5 mph - N/A   Overcast
10:54 PM 32.0 °F 28.7 °F 32.0 °F 100% 29.95 in 0.5 mi WSW 3.5 mph - N/A   Overcast
11:14 PM 31.8 °F - 31.8 °F 100% 29.94 in 0.8 mi Calm Calm - N/A   Overcast
11:34 PM 31.8 °F 26.2 °F 31.8 °F 100% 29.96 in 0.5 mi SW 5.8 mph - N/A   Overcast
11:54 PM 31.8 °F - 31.8 °F 100% 29.93 in 0.5 mi Calm Calm - N/A   Overcast